Regional Weather Roundup
Issued by NWS

Home | Current Version | Previous Version | Graphics & Text | Print | Product List | Glossary On
Versions: 1 2 3 4 5 6 7 8 9 10 11 12 13 14 15 16 17 18 19 20 21 22 23 24 25 26 27 28 29 30 31 32 33 34 35 36 37 38 39 40 41 42 43 44 45 46 47 48 49 50
455
ASUS43 KTOP 130208
RWRKS

WEATHER ROUNDUP FOR KANSAS
NATIONAL WEATHER SERVICE GOODLAND KS
800 PM CST TUE DEC 12 2017

NOTE:  "FAIR" INDICATES FEW OR NO CLOUDS BELOW 12,000 FEET WITH NO
SIGNIFICANT WEATHER AND/OR OBSTRUCTIONS TO VISIBILITY.

KSZ001>006-013>018-027>032-041>047-130300-
NORTHWEST KANSAS

CITY           SKY/WX    TMP DP  RH WIND       PRES   REMARKS
GOODLAND       CLEAR     45  16  31 SW12      30.04F
HAYS           CLEAR     42  16  34 W5        30.01F
HILL CITY      CLEAR     42  18  37 W6        29.99F
RUSSELL        CLEAR     41  19  41 S12       29.99F
$$

KSZ061>065-074>080-084>089-130300-
SOUTHWEST KANSAS

CITY           SKY/WX    TMP DP  RH WIND       PRES   REMARKS
DODGE CITY     CLEAR     45  14  28 SW10      30.07F
ELKHART        CLOUDY    51  20  30 SW10      30.13F
GARDEN CITY    CLOUDY    44  13  28 SW8       30.07F
GREAT BEND     CLEAR     38  17  42 SW9       30.03F
LIBERAL        CLOUDY    37  11  34 SW8       30.11F
PRATT          CLEAR     38  17  42 SW10      30.06F WCI  31
$$

KSZ066>073-081>083-090>101-130300-
SOUTHEAST KANSAS

CITY           SKY/WX    TMP DP  RH WIND       PRES   REMARKS
CHANUTE        CLEAR     34  25  69 S7        30.12F
COFFEYVILLE    CLEAR     35  25  66 S7        30.14F
HUTCHINSON     CLEAR     36  23  59 S6        30.05F
MEDICINE LODGE   N/A     43  23  45 S6        30.08F
NEWTON         CLEAR     41  27  57 S12       30.07F
PARSONS        CLEAR     30  23  75 CALM      30.14F
WICHITA INTL   CLEAR     38  28  67 S9        30.08F
WICHITA JABRA  CLEAR     42  29  59 S9        30.07F
WICHITA MCCONL CLEAR     40  27  60 SW10      30.08F WCI  33
WINFIELD       CLEAR     33  27  78 S8        30.12F
$$

KSZ007>012-019>026-033>040-048>060-102>105-130300-
NORTHEAST KANSAS

CITY           SKY/WX    TMP DP  RH WIND       PRES   REMARKS
CONCORDIA      CLEAR     42  25  50 S13       29.99F
EMPORIA        CLEAR     35  26  69 S10       30.07F WCI  27
LAWRENCE       CLEAR     28  23  81 SE5       30.06F
MANHATTAN      CLEAR     32  23  69 SW5       30.03F
MARYSVILLE     CLEAR     36  27  69 S6        29.99F
OLATHE IND     CLEAR     30  24  78 S8        30.07F
OLATHE EXE     CLEAR     30  23  75 S6        30.06F
SALINA         CLEAR     39  24  55 S8        30.03F
TOPEKA BILLARD CLEAR     37  28  70 S5        30.04F
TOPEKA FORBES  CLEAR     34  26  72 S6        30.04F
$$




USA.gov is the U.S. government's official web portal to all federal, state and local government web resources and services.